Time,TemperatureF,DewpointF,PressureIn,WindDirection,WindDirectionDegrees,WindSpeedMPH,WindSpeedGustMPH,Humidity,HourlyPrecipIn,Conditions,Clouds,dailyrainin,SoftwareType,DateUTC
2013-04-17 00:03:00,52.0,50.0,-100.00,ESE,110,2.0,6.0,91,0.00,,,-99.99,,2013-04-17 04:03:00,
2013-04-17 00:13:00,52.0,50.0,-100.00,East,90,2.0,4.0,91,0.00,,,-99.99,,2013-04-17 04:13:00,
2013-04-17 00:22:00,52.0,50.0,-100.00,East,95,2.0,4.0,91,0.00,,,-99.99,,2013-04-17 04:22:00,
2013-04-17 00:33:00,52.0,50.0,-100.00,ENE,60,1.0,2.0,91,0.00,,,-99.99,,2013-04-17 04:33:00,
2013-04-17 00:42:00,52.0,50.0,-100.00,ENE,60,0.0,1.0,92,0.00,,,-99.99,,2013-04-17 04:42:00,
2013-04-17 00:52:00,52.0,50.0,-100.00,North,10,0.0,1.0,92,0.00,,,-99.99,,2013-04-17 04:52:00,
2013-04-17 01:03:00,53.0,50.0,-100.00,ENE,65,0.0,1.0,92,0.00,,,-99.99,,2013-04-17 05:03:00,
2013-04-17 01:12:00,53.0,51.0,-100.00,North,10,1.0,2.0,92,0.00,,,-99.99,,2013-04-17 05:12:00,
2013-04-17 01:22:00,53.0,51.0,-100.00,North,350,1.0,3.0,92,0.00,,,-99.99,,2013-04-17 05:22:00,
2013-04-17 01:32:00,52.0,50.0,-100.00,NNW,340,3.0,4.0,92,0.00,,,-99.99,,2013-04-17 05:32:00,
2013-04-17 01:42:00,52.0,50.0,-100.00,NNW,330,2.0,4.0,92,0.00,,,-99.99,,2013-04-17 05:42:00,
2013-04-17 01:52:00,52.0,50.0,-100.00,NNW,345,2.0,4.0,92,0.00,,,-99.99,,2013-04-17 05:52:00,
2013-04-17 02:02:00,52.0,50.0,-100.00,NNW,340,1.0,2.0,92,0.00,,,-99.99,,2013-04-17 06:02:00,
2013-04-17 02:12:00,52.0,50.0,-100.00,NNW,345,1.0,2.0,92,0.00,,,-99.99,,2013-04-17 06:12:00,
2013-04-17 02:22:00,52.0,50.0,-100.00,NNW,330,2.0,4.0,93,0.00,,,-99.99,,2013-04-17 06:22:00,
2013-04-17 02:32:00,52.0,50.0,-100.00,North,355,2.0,5.0,93,0.00,,,-99.99,,2013-04-17 06:32:00,
2013-04-17 02:42:00,51.0,49.0,-100.00,North,10,4.0,6.0,93,0.00,,,-99.99,,2013-04-17 06:42:00,
2013-04-17 02:52:00,51.0,49.0,-100.00,NNE,30,2.0,6.0,93,0.00,,,-99.99,,2013-04-17 06:52:00,
2013-04-17 03:02:00,51.0,49.0,-100.00,North,10,4.0,6.0,93,0.00,,,-99.99,,2013-04-17 07:02:00,
2013-04-17 03:12:00,51.0,49.0,-100.00,North,350,2.0,5.0,92,0.00,,,-99.99,,2013-04-17 07:12:00,
2013-04-17 03:22:00,51.0,49.0,-100.00,NE,35,2.0,5.0,92,0.00,,,-99.99,,2013-04-17 07:22:00,
2013-04-17 03:32:00,51.0,49.0,-100.00,NNE,25,3.0,6.0,92,0.00,,,-99.99,,2013-04-17 07:32:00,
2013-04-17 03:42:00,50.0,48.0,-100.00,NNE,20,4.0,7.0,92,0.00,,,-99.99,,2013-04-17 07:42:00,
2013-04-17 03:52:00,50.0,48.0,-100.00,NNE,20,3.0,6.0,92,0.00,,,-99.99,,2013-04-17 07:52:00,
2013-04-17 04:02:00,50.0,48.0,-100.00,NNE,25,4.0,6.0,92,0.00,,,-99.99,,2013-04-17 08:02:00,
2013-04-17 04:12:00,50.0,48.0,-100.00,NW,325,2.0,7.0,92,0.00,,,-99.99,,2013-04-17 08:12:00,
2013-04-17 04:22:00,50.0,48.0,-100.00,NNE,25,3.0,7.0,92,0.00,,,-99.99,,2013-04-17 08:22:00,
2013-04-17 04:32:00,50.0,47.0,-100.00,NNE,25,5.0,7.0,92,0.00,,,-99.99,,2013-04-17 08:32:00,
2013-04-17 04:42:00,49.0,47.0,-100.00,NNE,25,4.0,6.0,92,0.00,,,-99.99,,2013-04-17 08:42:00,
2013-04-17 04:52:00,49.0,47.0,-100.00,NE,45,2.0,6.0,92,0.00,,,-99.99,,2013-04-17 08:52:00,
2013-04-17 05:02:00,49.0,47.0,-100.00,NE,35,2.0,6.0,91,0.00,,,-99.99,,2013-04-17 09:02:00,
2013-04-17 05:12:00,49.0,47.0,-100.00,ENE,60,4.0,6.0,91,0.00,,,-99.99,,2013-04-17 09:12:00,
2013-04-17 05:22:00,49.0,47.0,-100.00,ENE,60,3.0,7.0,92,0.00,,,-99.99,,2013-04-17 09:22:00,
2013-04-17 05:33:00,49.0,47.0,-100.00,NE,40,4.0,9.0,92,0.00,,,-99.99,,2013-04-17 09:33:00,
2013-04-17 05:42:00,49.0,47.0,-100.00,ENE,70,8.0,12.0,92,0.00,,,-99.99,,2013-04-17 09:42:00,
2013-04-17 05:52:00,49.0,47.0,-100.00,NE,45,6.0,11.0,92,0.00,,,-99.99,,2013-04-17 09:52:00,
2013-04-17 06:03:00,49.0,47.0,-100.00,NE,35,6.0,12.0,92,0.00,,,-99.99,,2013-04-17 10:03:00,
2013-04-17 06:12:00,49.0,47.0,-100.00,ENE,75,6.0,11.0,92,0.00,,,-99.99,,2013-04-17 10:12:00,
2013-04-17 06:23:00,49.0,47.0,-100.00,ENE,65,3.0,9.0,92,0.00,,,-99.99,,2013-04-17 10:23:00,
2013-04-17 06:32:00,49.0,47.0,-100.00,NE,45,4.0,9.0,92,0.00,,,-99.99,,2013-04-17 10:32:00,
2013-04-17 06:42:00,49.0,46.0,-100.00,NE,40,4.0,7.0,91,0.00,,,-99.99,,2013-04-17 10:42:00,
2013-04-17 06:52:00,49.0,46.0,-100.00,NE,45,4.0,8.0,91,0.00,,,-99.99,,2013-04-17 10:52:00,
2013-04-17 07:02:00,49.0,46.0,-100.00,NE,40,5.0,9.0,89,0.00,,,-99.99,,2013-04-17 11:02:00,
2013-04-17 07:12:00,49.0,46.0,-100.00,ENE,70,2.0,6.0,88,0.00,,,-99.99,,2013-04-17 11:12:00,
2013-04-17 07:22:00,49.0,45.0,-100.00,ENE,65,5.0,7.0,88,0.00,,,-99.99,,2013-04-17 11:22:00,
2013-04-17 07:32:00,49.0,45.0,-100.00,NNE,30,4.0,8.0,88,0.00,,,-99.99,,2013-04-17 11:32:00,
2013-04-17 07:42:00,49.0,45.0,-100.00,NE,40,5.0,8.0,88,0.00,,,-99.99,,2013-04-17 11:42:00,
2013-04-17 07:52:00,48.0,45.0,-100.00,NE,45,4.0,9.0,88,0.00,,,-99.99,,2013-04-17 11:52:00,
2013-04-17 08:03:00,49.0,45.0,-100.00,NE,45,4.0,8.0,87,0.00,,,-99.99,,2013-04-17 12:03:00,
2013-04-17 08:12:00,48.0,45.0,-100.00,East,80,7.0,11.0,87,0.00,,,-99.99,,2013-04-17 12:12:00,
2013-04-17 08:22:00,48.0,45.0,-100.00,NE,50,6.0,11.0,87,0.00,,,-99.99,,2013-04-17 12:22:00,
2013-04-17 08:32:00,48.0,44.0,-100.00,NE,35,8.0,12.0,86,0.00,,,-99.99,,2013-04-17 12:32:00,
2013-04-17 08:42:00,49.0,45.0,-100.00,NE,35,6.0,12.0,85,0.00,,,-99.99,,2013-04-17 12:42:00,
2013-04-17 08:52:00,48.0,44.0,-100.00,ENE,75,7.0,12.0,85,0.00,,,-99.99,,2013-04-17 12:52:00,
2013-04-17 09:02:00,48.0,44.0,-100.00,ENE,65,9.0,14.0,84,0.00,,,-99.99,,2013-04-17 13:02:00,
2013-04-17 09:12:00,49.0,44.0,-100.00,ENE,65,9.0,15.0,83,0.00,,,-99.99,,2013-04-17 13:12:00,
2013-04-17 09:22:00,49.0,45.0,-100.00,ENE,75,6.0,12.0,83,0.00,,,-99.99,,2013-04-17 13:22:00,
2013-04-17 09:32:00,50.0,44.0,-100.00,East,80,4.0,11.0,82,0.00,,,-99.99,,2013-04-17 13:32:00,
2013-04-17 09:42:00,50.0,44.0,-100.00,ENE,75,4.0,12.0,80,0.00,,,-99.99,,2013-04-17 13:42:00,
2013-04-17 09:52:00,50.0,44.0,-100.00,ENE,70,4.0,8.0,79,0.00,,,-99.99,,2013-04-17 13:52:00,
2013-04-17 10:02:00,50.0,44.0,-100.00,East,85,6.0,12.0,77,0.00,,,-99.99,,2013-04-17 14:02:00,
2013-04-17 10:12:00,51.0,44.0,-100.00,ESE,105,4.0,9.0,77,0.00,,,-99.99,,2013-04-17 14:12:00,
2013-04-17 10:22:00,51.0,44.0,-100.00,East,80,5.0,9.0,75,0.00,,,-99.99,,2013-04-17 14:22:00,
2013-04-17 10:32:00,51.0,44.0,-100.00,East,85,7.0,10.0,75,0.00,,,-99.99,,2013-04-17 14:32:00,
2013-04-17 10:42:00,52.0,44.0,-100.00,East,85,6.0,9.0,74,0.00,,,-99.99,,2013-04-17 14:42:00,
2013-04-17 10:52:00,52.0,44.0,-100.00,East,90,6.0,9.0,72,0.00,,,-99.99,,2013-04-17 14:52:00,
2013-04-17 11:02:00,53.0,44.0,-100.00,ESE,110,7.0,12.0,71,0.00,,,-99.99,,2013-04-17 15:02:00,
2013-04-17 11:12:00,53.0,44.0,-100.00,East,80,7.0,12.0,70,0.00,,,-99.99,,2013-04-17 15:12:00,
2013-04-17 11:22:00,54.0,44.0,-100.00,East,90,4.0,11.0,70,0.00,,,-99.99,,2013-04-17 15:22:00,
2013-04-17 11:33:00,55.0,45.0,-100.00,ESE,105,2.0,8.0,68,0.00,,,-99.99,,2013-04-17 15:33:00,
2013-04-17 11:43:00,55.0,44.0,-100.00,SE,130,2.0,12.0,66,0.00,,,-99.99,,2013-04-17 15:43:00,
2013-04-17 11:53:00,55.0,44.0,-100.00,NE,35,6.0,9.0,65,0.00,,,-99.99,,2013-04-17 15:53:00,
2013-04-17 12:03:00,56.0,44.0,-100.00,East,85,4.0,10.0,64,0.00,,,-99.99,,2013-04-17 16:03:00,
2013-04-17 12:12:00,56.0,44.0,-100.00,ESE,105,4.0,8.0,63,0.00,,,-99.99,,2013-04-17 16:12:00,
2013-04-17 12:23:00,56.0,44.0,-100.00,ESE,110,6.0,10.0,63,0.00,,,-99.99,,2013-04-17 16:23:00,
2013-04-17 12:32:00,58.0,45.0,-100.00,ESE,110,4.0,9.0,62,0.00,,,-99.99,,2013-04-17 16:32:00,
2013-04-17 12:42:00,58.0,45.0,-100.00,ENE,75,4.0,9.0,62,0.00,,,-99.99,,2013-04-17 16:42:00,
2013-04-17 12:52:00,58.0,45.0,-100.00,ESE,120,0.0,9.0,62,0.00,,,-99.99,,2013-04-17 16:52:00,
2013-04-17 13:02:00,59.0,45.0,-100.00,East,95,4.0,9.0,60,0.00,,,-99.99,,2013-04-17 17:02:00,
2013-04-17 13:12:00,59.0,47.0,-100.00,SE,135,3.0,9.0,63,0.00,,,-99.99,,2013-04-17 17:12:00,
2013-04-17 13:22:00,59.0,45.0,-100.00,SE,140,3.0,5.0,59,0.00,,,-99.99,,2013-04-17 17:22:00,
2013-04-17 13:33:00,59.0,45.0,-100.00,SE,130,5.0,7.0,59,0.00,,,-99.99,,2013-04-17 17:33:00,
2013-04-17 13:42:00,60.0,45.0,-100.00,NE,55,1.0,6.0,58,0.00,,,-99.99,,2013-04-17 17:42:00,
2013-04-17 13:52:00,60.0,46.0,-100.00,SSE,155,2.0,7.0,60,0.00,,,-99.99,,2013-04-17 17:52:00,
2013-04-17 14:02:00,60.0,45.0,-100.00,ESE,120,3.0,6.0,57,0.00,,,-99.99,,2013-04-17 18:02:00,
2013-04-17 14:12:00,61.0,47.0,-100.00,ESE,115,6.0,8.0,60,0.00,,,-99.99,,2013-04-17 18:12:00,
2013-04-17 14:22:00,61.0,47.0,-100.00,SE,125,2.0,9.0,58,0.00,,,-99.99,,2013-04-17 18:22:00,
2013-04-17 14:32:00,62.0,46.0,-100.00,ENE,65,3.0,6.0,56,0.00,,,-99.99,,2013-04-17 18:32:00,
2013-04-17 14:42:00,62.0,48.0,-100.00,SSE,150,2.0,4.0,59,0.00,,,-99.99,,2013-04-17 18:42:00,
2013-04-17 14:52:00,62.0,47.0,-100.00,SE,140,2.0,5.0,58,0.00,,,-99.99,,2013-04-17 18:52:00,
2013-04-17 15:02:00,63.0,47.0,-100.00,East,95,2.0,4.0,55,0.00,,,-99.99,,2013-04-17 19:02:00,
2013-04-17 15:12:00,63.0,48.0,-100.00,NE,40,1.0,5.0,57,0.00,,,-99.99,,2013-04-17 19:12:00,
2013-04-17 15:22:00,64.0,48.0,-100.00,NNW,330,2.0,4.0,57,0.00,,,-99.99,,2013-04-17 19:22:00,
2013-04-17 15:32:00,65.0,48.0,-100.00,WSW,255,2.0,5.0,54,0.00,,,-99.99,,2013-04-17 19:32:00,
2013-04-17 15:42:00,64.0,49.0,-100.00,SE,130,5.0,7.0,58,0.00,,,-99.99,,2013-04-17 19:42:00,
2013-04-17 15:52:00,65.0,49.0,-100.00,SE,140,4.0,6.0,57,0.00,,,-99.99,,2013-04-17 19:52:00,
2013-04-17 16:03:00,65.0,49.0,-100.00,East,90,1.0,7.0,56,0.00,,,-99.99,,2013-04-17 20:03:00,
2013-04-17 16:12:00,66.0,50.0,-100.00,South,175,2.0,6.0,56,0.00,,,-99.99,,2013-04-17 20:12:00,
2013-04-17 16:22:00,65.0,49.0,-100.00,ESE,110,0.0,4.0,55,0.00,,,-99.99,,2013-04-17 20:22:00,
2013-04-17 16:32:00,65.0,49.0,-100.00,South,175,1.0,6.0,55,0.00,,,-99.99,,2013-04-17 20:32:00,
2013-04-17 16:42:00,65.0,52.0,-100.00,SSE,165,2.0,4.0,60,0.00,,,-99.99,,2013-04-17 20:42:00,
2013-04-17 16:52:00,65.0,50.0,-100.00,ESE,105,4.0,7.0,58,0.00,,,-99.99,,2013-04-17 20:52:00,
2013-04-17 17:03:00,65.0,51.0,-100.00,South,170,2.0,6.0,59,0.00,,,-99.99,,2013-04-17 21:03:00,
2013-04-17 17:12:00,65.0,52.0,-100.00,SSW,205,2.0,4.0,61,0.00,,,-99.99,,2013-04-17 21:12:00,
2013-04-17 17:22:00,65.0,50.0,-100.00,South,175,4.0,7.0,59,0.00,,,-99.99,,2013-04-17 21:22:00,
2013-04-17 17:33:00,65.0,52.0,-100.00,SSE,150,3.0,9.0,62,0.00,,,-99.99,,2013-04-17 21:33:00,
2013-04-17 17:42:00,66.0,51.0,-100.00,South,170,2.0,7.0,58,0.00,,,-99.99,,2013-04-17 21:42:00,
2013-04-17 17:53:00,65.0,51.0,-100.00,South,180,3.0,8.0,61,0.00,,,-99.99,,2013-04-17 21:53:00,
2013-04-17 18:02:00,65.0,52.0,-100.00,South,170,4.0,9.0,62,0.00,,,-99.99,,2013-04-17 22:02:00,
2013-04-17 18:12:00,64.0,51.0,-100.00,SE,135,6.0,9.0,63,0.00,,,-99.99,,2013-04-17 22:12:00,
2013-04-17 18:22:00,64.0,51.0,-100.00,SSE,150,4.0,9.0,62,0.00,,,-99.99,,2013-04-17 22:22:00,
2013-04-17 18:33:00,64.0,51.0,-100.00,SE,135,5.0,8.0,62,0.00,,,-99.99,,2013-04-17 22:33:00,
2013-04-17 18:42:00,64.0,52.0,-100.00,SE,140,4.0,9.0,64,0.00,,,-99.99,,2013-04-17 22:42:00,
2013-04-17 18:53:00,64.0,52.0,-100.00,SE,140,6.0,10.0,64,0.00,,,-99.99,,2013-04-17 22:53:00,
2013-04-17 19:02:00,64.0,52.0,-100.00,SE,145,7.0,12.0,65,0.00,,,-99.99,,2013-04-17 23:02:00,
2013-04-17 19:12:00,64.0,52.0,-100.00,SSE,150,6.0,9.0,64,0.00,,,-99.99,,2013-04-17 23:12:00,
2013-04-17 19:22:00,63.0,52.0,-100.00,SSE,150,3.0,11.0,66,0.00,,,-99.99,,2013-04-17 23:22:00,
2013-04-17 19:32:00,63.0,52.0,-100.00,SSE,150,5.0,9.0,67,0.00,,,-99.99,,2013-04-17 23:32:00,
2013-04-17 19:42:00,62.0,52.0,-100.00,SE,140,6.0,11.0,69,0.00,,,-99.99,,2013-04-17 23:42:00,
2013-04-17 19:52:00,62.0,52.0,-100.00,SE,140,6.0,9.0,70,0.00,,,-99.99,,2013-04-17 23:52:00,
2013-04-17 20:02:00,62.0,52.0,-100.00,SE,145,6.0,9.0,70,0.00,,,-99.99,,2013-04-18 00:02:00,
2013-04-17 20:12:00,61.0,52.0,-100.00,SSE,160,4.0,7.0,72,0.00,,,-99.99,,2013-04-18 00:12:00,
2013-04-17 20:22:00,61.0,52.0,-100.00,SE,145,2.0,6.0,73,0.00,,,-99.99,,2013-04-18 00:22:00,
2013-04-17 20:32:00,60.0,52.0,-100.00,SSE,160,3.0,6.0,75,0.00,,,-99.99,,2013-04-18 00:32:00,
2013-04-17 20:42:00,60.0,52.0,-100.00,SSE,155,1.0,4.0,75,0.00,,,-99.99,,2013-04-18 00:42:00,
2013-04-17 20:52:00,60.0,52.0,-100.00,South,175,1.0,3.0,76,0.00,,,-99.99,,2013-04-18 00:52:00,
2013-04-17 21:02:00,60.0,52.0,-100.00,South,190,1.0,2.0,77,0.00,,,-99.99,,2013-04-18 01:02:00,
2013-04-17 21:12:00,59.0,52.0,-100.00,South,185,1.0,3.0,77,0.00,,,-99.99,,2013-04-18 01:12:00,
2013-04-17 21:22:00,59.0,52.0,-100.00,South,170,1.0,3.0,77,0.00,,,-99.99,,2013-04-18 01:22:00,
2013-04-17 21:32:00,59.0,52.0,-100.00,SE,140,2.0,4.0,78,0.00,,,-99.99,,2013-04-18 01:32:00,
2013-04-17 21:42:00,59.0,52.0,-100.00,SSE,150,2.0,4.0,78,0.00,,,-99.99,,2013-04-18 01:42:00,
2013-04-17 21:52:00,59.0,52.0,-100.00,SE,145,2.0,4.0,79,0.00,,,-99.99,,2013-04-18 01:52:00,
2013-04-17 22:02:00,58.0,52.0,-100.00,SE,135,4.0,6.0,79,0.00,,,-99.99,,2013-04-18 02:02:00,
2013-04-17 22:12:00,58.0,52.0,-100.00,SE,135,5.0,6.0,80,0.00,,,-99.99,,2013-04-18 02:12:00,
2013-04-17 22:22:00,58.0,52.0,-100.00,SE,140,4.0,8.0,79,0.00,,,-99.99,,2013-04-18 02:22:00,
2013-04-17 22:32:00,58.0,52.0,-100.00,SE,125,5.0,8.0,79,0.00,,,-99.99,,2013-04-18 02:32:00,
2013-04-17 22:42:00,58.0,52.0,-100.00,SE,125,5.0,8.0,79,0.00,,,-99.99,,2013-04-18 02:42:00,
2013-04-17 22:52:00,58.0,52.0,-100.00,SE,125,5.0,8.0,79,0.00,,,-99.99,,2013-04-18 02:52:00,
2013-04-17 23:02:00,58.0,52.0,-100.00,SE,125,5.0,9.0,79,0.00,,,-99.99,,2013-04-18 03:02:00,
2013-04-17 23:12:00,58.0,52.0,-100.00,ESE,120,6.0,8.0,79,0.00,,,-99.99,,2013-04-18 03:12:00,
2013-04-17 23:22:00,58.0,52.0,-100.00,SE,130,6.0,9.0,80,0.00,,,-99.99,,2013-04-18 03:22:00,
2013-04-17 23:33:00,58.0,52.0,-100.00,SE,140,6.0,9.0,80,0.00,,,-99.99,,2013-04-18 03:33:00,
2013-04-17 23:43:00,58.0,52.0,-100.00,SE,140,6.0,8.0,80,0.00,,,-99.99,,2013-04-18 03:43:00,
2013-04-17 23:53:00,58.0,52.0,-100.00,SE,140,4.0,6.0,80,0.00,,,-99.99,,2013-04-18 03:53:00,